User: anonymous   Login
Location: Vancouver
(49.2500°N, 123.1330°W)
Time: 19:10:15
(UTC-07:00)
Language:

Cosmos 1340 Rocket - Orbit

View from above orbital plane
View from above orbital plane
View from above satellite
View from above satellite

Ground track
Ground track

The orbit data is extracted from the following two-line orbital elements,

1 13068U 82013B   15148.16016773  .00000443  00000-0  28879-4 0  9991
2 13068 081.2036 359.2545 0021166 274.2101 085.6703 15.05804453810425
Epoch (UTC): 28 May 2015 03:50:38
Eccentricity: 0.0021166
inclination: 81.2036°
perigee height: 534 km
apogee height: 564 km
right ascension of ascending node: 359.2545°
argument of perigee: 274.2101°
revolutions per day: 15.05804453
mean anomaly at epoch: 85.6703°
orbit number at epoch: 81042

The dashed part of the orbit path shows where the satellite is in the earth's shadow,  

DLR